Regional Weather Roundup
Issued by NWS

Home | Current Version | Previous Version | Graphics & Text | Print | Product List | Glossary Off
Versions: 1 2 3 4 5 6 7 8 9 10 11 12 13 14 15 16 17 18 19 20 21 22 23 24 25 26 27 28 29 30 31 32 33 34 35 36 37 38 39 40 41 42 43 44 45 46 47 48 49 50

000
ASUS43 KTOP 010059
RWRKS

WEATHER ROUNDUP FOR KANSAS
NATIONAL WEATHER SERVICE GOODLAND KS
800 PM CDT SUN AUG 31 2014

NOTE:  "FAIR" INDICATES FEW OR NO CLOUDS BELOW 12,000 FEET WITH NO
SIGNIFICANT WEATHER AND/OR OBSTRUCTIONS TO VISIBILITY.

KSZ001>006-013>018-027>032-041>047-010200-
NORTHWEST KANSAS

CITY           SKY/WX    TMP DP  RH WIND       PRES   REMARKS
GOODLAND       CLOUDY    70  55  59 NE5       29.82F
HAYS           CLOUDY    79  61  53 N17G26    29.74R
HILL CITY      PTCLDY    77  57  50 NE15      29.74R
RUSSELL        CLOUDY    72  62  71 N8        29.70F
$$

KSZ061>065-074>080-084>089-010200-
SOUTHWEST KANSAS

CITY           SKY/WX    TMP DP  RH WIND       PRES   REMARKS
DODGE CITY     TSTM      79  66  64 W29G49    29.72R
ELKHART          N/A     93  43  17 S12         N/A
GARDEN CITY    CLOUDY    83  59  44 NE23      29.71R
GREAT BEND     CLOUDY    72  64  78 E7        29.67F
LIBERAL        PTCLDY    97  43  15 SW16      29.67S
$$

KSZ066>073-081>083-090>101-010200-
SOUTHEAST KANSAS

CITY           SKY/WX    TMP DP  RH WIND       PRES   REMARKS
CHANUTE        CLEAR     87  65  47 S25       29.76R
COFFEYVILLE    CLEAR     88  66  48 S18G28    29.75F
HUTCHINSON     CLOUDY    92  62  36 S24G36    29.63R
MEDICINE LODGE   N/A     91  63  39 S16G24    29.65R
NEWTON         MOCLDY    90  61  37 S25G33    29.70R
PARSONS        CLEAR     88  65  46 S12G22    29.77R
WICHITA INTL   MOCLDY    91  61  36 S25G36    29.66S
WICHITA JABRA  PTCLDY    90  62  39 S22       29.67S
WINFIELD       CLEAR     90  64  42 S21G26    29.72R
$$

KSZ007>012-019>026-033>040-048>060-102>105-010200-
NORTHEAST KANSAS

CITY           SKY/WX    TMP DP  RH WIND       PRES   REMARKS
CONCORDIA      TSTM      73  67  81 NW13      29.67R
EMPORIA        PTCLDY    88  63  43 S18G26    29.68R
LAWRENCE       MOCLDY    92  63  38 S20G30    29.69R
MANHATTAN      LGT RAIN  84  65  52 NW15G35   29.68R
OLATHE IND     PTCLDY    87  63  44 S14       29.74R
OLATHE EXE     PTCLDY    85  65  51 S14G23    29.74R
SALINA         TSTM      75  67  76 W28G35    29.76R
TOPEKA BILLARD CLOUDY    90  67  46 SE20G25   29.67R
TOPEKA FORBES  CLOUDY    89  66  46 S21G32    29.67R
$$



USA.gov is the U.S. government's official web portal to all federal, state and local government web resources and services.